QPF
0.01 0.01 0.00 0.00 0.00 0.00 0.00 0.00 0.01 0.01 0.01 0.01 0.02 0.02 0.02 0.04 0.02 0.02 0.03 0.02 0.02 0.03 0.03 0.04 0.06 0.07 0.07 0.10 0.10 0.12 0.14 0.13 0.11 0.10 0.12 0.17 0.31 0.38 0.36 0.31 0.22 0.18 0.19
0.01 0.00 0.00 0.00 0.00 0.00 0.00 0.00 0.00 0.00 0.01 0.01 0.01 0.02 0.02 0.04 0.02 0.02 0.02 0.01 0.02 0.02 0.03 0.04 0.05 0.05 0.05 0.07 0.10 0.10 0.10 0.12 0.12 0.10 0.11 0.16 0.23 0.26 0.26 0.24 0.20 0.23 0.20
0.01 0.00 0.00 0.00 0.00 0.00 0.00 0.00 0.00 0.00 0.01 0.01 0.01 0.01 0.02 0.03 0.03 0.02 0.02 0.01 0.02 0.02 0.03 0.03 0.04 0.05 0.06 0.07 0.09 0.09 0.09 0.12 0.12 0.11 0.11 0.10 0.13 0.15 0.17 0.18 0.17 0.23 0.22
0.01 0.01 0.00 0.00 0.00 0.00 0.00 0.00 0.00 0.00 0.00 0.01 0.01 0.01 0.01 0.01 0.02 0.01 0.02 0.02 0.02 0.03 0.02 0.03 0.05 0.07 0.07 0.06 0.06 0.07 0.09 0.11 0.11 0.11 0.09 0.09 0.08 0.11 0.13 0.14 0.14 0.19 0.20
0.02 0.02 0.02 0.02 0.00 0.00 0.00 0.00 0.00 0.00 0.00 0.00 0.01 0.01 0.01 0.01 0.01 0.01 0.01 0.02 0.03 0.04 0.04 0.03 0.05 0.07 0.07 0.05 0.05 0.06 0.08 0.12 0.10 0.09 0.06 0.08 0.08 0.10 0.11 0.13 0.12 0.14 0.14
0.02 0.02 0.02 0.02 0.01 0.00 0.00 0.00 0.00 0.00 0.00 0.00 0.00 0.01 0.01 0.00 0.01 0.01 0.01 0.02 0.04 0.05 0.05 0.05 0.06 0.09 0.07 0.06 0.06 0.06 0.08 0.10 0.09 0.06 0.06 0.08 0.07 0.08 0.08 0.10 0.09 0.10 0.09
0.02 0.02 0.01 0.02 0.01 0.01 0.01 0.01 0.01 0.01 0.00 0.00 0.00 0.00 0.01 0.01 0.01 0.01 0.01 0.02 0.03 0.03 0.04 0.06 0.08 0.13 0.09 0.08 0.08 0.07 0.07 0.07 0.07 0.09 0.07 0.08 0.08 0.08 0.07 0.08 0.10 0.09 0.07
0.02 0.02 0.02 0.04 0.02 0.01 0.02 0.02 0.03 0.02 0.01 0.01 0.00 0.01 0.01 0.01 0.01 0.01 0.01 0.02 0.02 0.03 0.04 0.07 0.07 0.09 0.08 0.07 0.06 0.05 0.06 0.06 0.07 0.10 0.09 0.09 0.11 0.12 0.08 0.07 0.09 0.09 0.09
0.02 0.02 0.01 0.01 0.02 0.02 0.02 0.02 0.06 0.04 0.02 0.01 0.01 0.01 0.01 0.02 0.02 0.02 0.02 0.02 0.02 0.01 0.02 0.03 0.04 0.05 0.06 0.05 0.04 0.04 0.06 0.07 0.07 0.09 0.10 0.10 0.12 0.12 0.10 0.08 0.08 0.09 0.09
0.01 0.01 0.02 0.01 0.01 0.01 0.01 0.03 0.10 0.07 0.03 0.02 0.01 0.01 0.01 0.02 0.02 0.01 0.01 0.01 0.02 0.01 0.01 0.02 0.02 0.03 0.04 0.04 0.04 0.04 0.04 0.06 0.07 0.07 0.10 0.11 0.13 0.14 0.13 0.12 0.10 0.08 0.09
0.01 0.01 0.01 0.02 0.01 0.01 0.02 0.03 0.11 0.07 0.04 0.02 0.02 0.01 0.01 0.01 0.00 0.01 0.01 0.02 0.02 0.02 0.01 0.01 0.01 0.02 0.03 0.04 0.05 0.05 0.04 0.03 0.05 0.06 0.10 0.16 0.15 0.15 0.15 0.14 0.11 0.08 0.07
0.01 0.01 0.02 0.03 0.03 0.03 0.04 0.05 0.04 0.03 0.03 0.01 0.01 0.01 0.01 0.01 0.00 0.01 0.02 0.03 0.03 0.02 0.02 0.02 0.02 0.02 0.02 0.02 0.04 0.04 0.03 0.03 0.05 0.06 0.07 0.15 0.20 0.17 0.15 0.14 0.13 0.09 0.07
0.01 0.02 0.03 0.04 0.04 0.05 0.05 0.08 0.04 0.04 0.03 0.02 0.02 0.02 0.02 0.01 0.01 0.01 0.01 0.01 0.02 0.01 0.01 0.02 0.02 0.01 0.01 0.00 0.01 0.01 0.02 0.03 0.06 0.07 0.09 0.09 0.13 0.14 0.14 0.12 0.12 0.11 0.11
0.02 0.03 0.05 0.08 0.06 0.07 0.09 0.13 0.08 0.05 0.04 0.03 0.02 0.02 0.02 0.02 0.02 0.01 0.02 0.02 0.01 0.01 0.01 0.01 0.01 0.01 0.01 0.00 0.01 0.02 0.02 0.02 0.05 0.09 0.12 0.10 0.09 0.10 0.11 0.12 0.10 0.09 0.11
0.03 0.05 0.07 0.12 0.11 0.06 0.07 0.11 0.09 0.08 0.06 0.05 0.05 0.04 0.04 0.03 0.03 0.02 0.02 0.02 0.01 0.01 0.01 0.02 0.02 0.02 0.03 0.02 0.02 0.03 0.02 0.02 0.03 0.06 0.11 0.14 0.14 0.13 0.12 0.12 0.09 0.08 0.09
0.02 0.04 0.07 0.09 0.09 0.08 0.06 0.06 0.07 0.08 0.09 0.10 0.09 0.08 0.06 0.06 0.05 0.05 0.03 0.01 0.01 0.01 0.02 0.02 0.04 0.03 0.04 0.04 0.04 0.04 0.02 0.02 0.03 0.04 0.06 0.10 0.15 0.16 0.15 0.12 0.10 0.08 0.08
0.02 0.03 0.03 0.03 0.04 0.06 0.07 0.08 0.08 0.08 0.08 0.07 0.08 0.08 0.06 0.05 0.05 0.05 0.04 0.02 0.02 0.02 0.03 0.03 0.04 0.04 0.05 0.06 0.06 0.05 0.04 0.04 0.04 0.05 0.04 0.05 0.08 0.14 0.16 0.13 0.09 0.08 0.08
0.02 0.02 0.02 0.03 0.03 0.03 0.05 0.07 0.08 0.09 0.09 0.08 0.07 0.08 0.07 0.06 0.05 0.05 0.04 0.03 0.04 0.03 0.03 0.02 0.02 0.03 0.05 0.05 0.06 0.07 0.06 0.06 0.07 0.10 0.06 0.06 0.07 0.10 0.15 0.15 0.11 0.09 0.07
0.01 0.01 0.02 0.02 0.03 0.03 0.03 0.06 0.07 0.09 0.10 0.10 0.08 0.07 0.07 0.06 0.05 0.04 0.04 0.03 0.04 0.06 0.04 0.03 0.02 0.02 0.03 0.03 0.04 0.05 0.07 0.06 0.07 0.12 0.07 0.05 0.06 0.10 0.16 0.16 0.11 0.07 0.07
0.01 0.02 0.04 0.04 0.04 0.02 0.03 0.03 0.04 0.05 0.07 0.08 0.07 0.05 0.07 0.06 0.05 0.04 0.04 0.04 0.04 0.05 0.04 0.03 0.03 0.03 0.03 0.03 0.03 0.04 0.05 0.05 0.05 0.09 0.06 0.04 0.03 0.04 0.07 0.10 0.10 0.07 0.06
0.01 0.02 0.03 0.04 0.03 0.02 0.02 0.02 0.02 0.04 0.02 0.03 0.03 0.03 0.06 0.06 0.05 0.05 0.05 0.05 0.05 0.06 0.04 0.04 0.03 0.03 0.04 0.04 0.03 0.03 0.03 0.04 0.05 0.06 0.05 0.03 0.02 0.03 0.05 0.05 0.07 0.06 0.04
0.01 0.02 0.03 0.02 0.02 0.01 0.02 0.02 0.03 0.04 0.02 0.02 0.02 0.02 0.04 0.05 0.06 0.05 0.05 0.06 0.07 0.09 0.08 0.07 0.06 0.05 0.04 0.04 0.03 0.04 0.02 0.03 0.04 0.05 0.05 0.03 0.03 0.02 0.04 0.07 0.07 0.06 0.04
0.03 0.03 0.02 0.02 0.02 0.01 0.01 0.03 0.06 0.04 0.03 0.02 0.03 0.02 0.02 0.02 0.02 0.03 0.04 0.06 0.06 0.08 0.09 0.09 0.09 0.08 0.07 0.07 0.05 0.04 0.04 0.03 0.02 0.03 0.05 0.05 0.05 0.04 0.04 0.06 0.10 0.08 0.06
0.05 0.05 0.04 0.03 0.02 0.01 0.01 0.02 0.06 0.04 0.02 0.02 0.02 0.02 0.01 0.02 0.01 0.01 0.01 0.01 0.02 0.04 0.04 0.05 0.06 0.07 0.09 0.10 0.09 0.05 0.04 0.03 0.02 0.02 0.04 0.07 0.07 0.05 0.04 0.05 0.07 0.10 0.08
0.07 0.05 0.05 0.04 0.02 0.01 0.01 0.01 0.03 0.02 0.02 0.02 0.02 0.02 0.01 0.01 0.02 0.02 0.01 0.01 0.02 0.03 0.03 0.03 0.05 0.08 0.09 0.10 0.11 0.09 0.07 0.05 0.04 0.04 0.04 0.07 0.08 0.08 0.06 0.05 0.04 0.04 0.06
0.07 0.06 0.05 0.04 0.03 0.02 0.03 0.02 0.01 0.01 0.01 0.01 0.02 0.01 0.01 0.01 0.03 0.03 0.02 0.02 0.02 0.03 0.03 0.04 0.05 0.06 0.06 0.07 0.09 0.10 0.11 0.08 0.05 0.04 0.04 0.06 0.08 0.08 0.06 0.05 0.05 0.04 0.03
MSLP
1008.77 1008.26 1007.96 1007.94 1008.20 1008.64 1009.15 1009.61 1009.93 1010.08 1010.09 1010.04 1010.04 1010.18 1010.49 1010.96 1011.54 1012.15 1012.69 1013.11 1013.37 1013.52 1013.59 1013.64 1013.74 1013.91 1014.13 1014.40 1014.66 1014.88 1015.06 1015.20 1015.32 1015.45 1015.60 1015.79 1016.00 1016.20 1016.37 1016.48 1016.53 1016.53 1016.52
1008.34 1007.99 1007.85 1007.97 1008.32 1008.81 1009.34 1009.79 1010.09 1010.23 1010.25 1010.24 1010.30 1010.48 1010.83 1011.33 1011.91 1012.49 1012.99 1013.36 1013.59 1013.71 1013.77 1013.84 1013.94 1014.10 1014.32 1014.56 1014.78 1014.97 1015.11 1015.21 1015.32 1015.44 1015.60 1015.81 1016.04 1016.25 1016.44 1016.56 1016.63 1016.65 1016.65
1007.68 1007.53 1007.57 1007.85 1008.32 1008.89 1009.46 1009.94 1010.26 1010.42 1010.48 1010.51 1010.60 1010.83 1011.19 1011.68 1012.22 1012.75 1013.19 1013.51 1013.70 1013.81 1013.87 1013.95 1014.07 1014.25 1014.46 1014.68 1014.88 1015.03 1015.14 1015.23 1015.32 1015.45 1015.62 1015.84 1016.08 1016.31 1016.50 1016.63 1016.71 1016.75 1016.79
1006.87 1006.91 1007.14 1007.59 1008.19 1008.87 1009.51 1010.04 1010.40 1010.61 1010.71 1010.79 1010.93 1011.17 1011.53 1011.98 1012.47 1012.92 1013.29 1013.56 1013.72 1013.83 1013.91 1014.02 1014.17 1014.36 1014.59 1014.80 1014.97 1015.11 1015.20 1015.28 1015.37 1015.50 1015.69 1015.92 1016.16 1016.39 1016.58 1016.72 1016.80 1016.86 1016.92
1006.03 1006.24 1006.64 1007.24 1007.96 1008.74 1009.45 1010.04 1010.47 1010.74 1010.90 1011.04 1011.22 1011.48 1011.82 1012.23 1012.65 1013.03 1013.34 1013.55 1013.70 1013.81 1013.93 1014.08 1014.27 1014.49 1014.72 1014.92 1015.09 1015.20 1015.28 1015.36 1015.46 1015.62 1015.82 1016.05 1016.30 1016.52 1016.70 1016.82 1016.90 1016.96 1017.04
1005.30 1005.63 1006.15 1006.86 1007.68 1008.52 1009.29 1009.94 1010.42 1010.75 1010.99 1011.20 1011.42 1011.70 1012.04 1012.41 1012.78 1013.10 1013.35 1013.54 1013.69 1013.82 1013.97 1014.16 1014.39 1014.64 1014.87 1015.07 1015.22 1015.32 1015.40 1015.48 1015.60 1015.77 1015.99 1016.24 1016.48 1016.68 1016.83 1016.93 1016.99 1017.04 1017.12
1004.77 1005.16 1005.75 1006.51 1007.37 1008.24 1009.04 1009.71 1010.24 1010.64 1010.94 1011.22 1011.51 1011.83 1012.18 1012.54 1012.88 1013.16 1013.39 1013.56 1013.72 1013.88 1014.07 1014.30 1014.55 1014.81 1015.04 1015.22 1015.35 1015.44 1015.51 1015.60 1015.74 1015.93 1016.17 1016.43 1016.66 1016.85 1016.97 1017.03 1017.06 1017.09 1017.16
1004.48 1004.89 1005.49 1006.25 1007.09 1007.94 1008.72 1009.39 1009.94 1010.38 1010.76 1011.12 1011.48 1011.86 1012.25 1012.62 1012.95 1013.23 1013.45 1013.63 1013.80 1013.99 1014.21 1014.47 1014.74 1014.99 1015.21 1015.36 1015.46 1015.53 1015.59 1015.69 1015.85 1016.07 1016.33 1016.60 1016.83 1017.00 1017.09 1017.11 1017.10 1017.10 1017.15
1004.40 1004.80 1005.38 1006.10 1006.88 1007.66 1008.38 1009.02 1009.56 1010.04 1010.48 1010.92 1011.36 1011.82 1012.26 1012.67 1013.02 1013.31 1013.53 1013.73 1013.92 1014.13 1014.38 1014.64 1014.91 1015.15 1015.34 1015.46 1015.53 1015.58 1015.64 1015.74 1015.92 1016.16 1016.44 1016.72 1016.95 1017.11 1017.17 1017.16 1017.12 1017.08 1017.10
1004.46 1004.85 1005.39 1006.05 1006.75 1007.44 1008.08 1008.66 1009.18 1009.67 1010.16 1010.67 1011.20 1011.73 1012.24 1012.69 1013.08 1013.39 1013.63 1013.84 1014.04 1014.27 1014.52 1014.79 1015.04 1015.26 1015.42 1015.51 1015.55 1015.57 1015.63 1015.74 1015.93 1016.19 1016.50 1016.79 1017.03 1017.19 1017.24 1017.21 1017.14 1017.07 1017.06
1004.58 1004.97 1005.49 1006.08 1006.70 1007.29 1007.85 1008.36 1008.85 1009.34 1009.86 1010.43 1011.03 1011.63 1012.19 1012.70 1013.11 1013.44 1013.70 1013.92 1014.14 1014.36 1014.61 1014.87 1015.11 1015.30 1015.43 1015.50 1015.52 1015.53 1015.58 1015.71 1015.91 1016.19 1016.52 1016.83 1017.08 1017.24 1017.30 1017.27 1017.19 1017.11 1017.08
1004.68 1005.10 1005.61 1006.16 1006.71 1007.23 1007.70 1008.15 1008.60 1009.09 1009.63 1010.24 1010.88 1011.53 1012.14 1012.67 1013.11 1013.46 1013.72 1013.95 1014.17 1014.39 1014.64 1014.88 1015.11 1015.28 1015.40 1015.45 1015.47 1015.48 1015.54 1015.67 1015.88 1016.18 1016.52 1016.84 1017.11 1017.29 1017.37 1017.36 1017.30 1017.23 1017.19
1004.72 1005.20 1005.72 1006.26 1006.77 1007.23 1007.64 1008.04 1008.46 1008.94 1009.48 1010.10 1010.77 1011.43 1012.06 1012.61 1013.06 1013.41 1013.68 1013.91 1014.12 1014.35 1014.59 1014.83 1015.05 1015.22 1015.33 1015.39 1015.42 1015.44 1015.51 1015.65 1015.87 1016.17 1016.51 1016.85 1017.14 1017.35 1017.46 1017.48 1017.46 1017.41 1017.39
1004.74 1005.26 1005.81 1006.35 1006.83 1007.26 1007.64 1008.01 1008.41 1008.87 1009.41 1010.02 1010.68 1011.34 1011.95 1012.49 1012.93 1013.28 1013.55 1013.79 1014.01 1014.24 1014.49 1014.73 1014.96 1015.14 1015.27 1015.35 1015.40 1015.44 1015.52 1015.67 1015.89 1016.18 1016.52 1016.85 1017.16 1017.39 1017.54 1017.62 1017.64 1017.64 1017.64
1004.76 1005.32 1005.89 1006.42 1006.90 1007.31 1007.68 1008.04 1008.42 1008.87 1009.39 1009.97 1010.60 1011.22 1011.80 1012.31 1012.73 1013.07 1013.35 1013.60 1013.84 1014.09 1014.36 1014.62 1014.87 1015.08 1015.23 1015.34 1015.41 1015.48 1015.58 1015.72 1015.94 1016.21 1016.52 1016.84 1017.14 1017.40 1017.59 1017.72 1017.80 1017.85 1017.90
1004.84 1005.40 1005.96 1006.48 1006.95 1007.35 1007.72 1008.08 1008.47 1008.90 1009.39 1009.93 1010.50 1011.06 1011.58 1012.05 1012.45 1012.79 1013.08 1013.36 1013.63 1013.92 1014.22 1014.51 1014.79 1015.03 1015.22 1015.36 1015.46 1015.55 1015.66 1015.80 1015.99 1016.23 1016.51 1016.80 1017.09 1017.35 1017.56 1017.74 1017.88 1018.00 1018.09
1005.02 1005.54 1006.06 1006.54 1006.99 1007.39 1007.77 1008.14 1008.53 1008.95 1009.40 1009.88 1010.38 1010.86 1011.32 1011.73 1012.10 1012.44 1012.76 1013.07 1013.40 1013.73 1014.08 1014.41 1014.73 1015.00 1015.22 1015.39 1015.52 1015.63 1015.74 1015.88 1016.04 1016.24 1016.47 1016.72 1016.97 1017.22 1017.46 1017.67 1017.86 1018.03 1018.18
1005.30 1005.74 1006.18 1006.61 1007.03 1007.43 1007.82 1008.21 1008.61 1009.01 1009.42 1009.84 1010.24 1010.64 1011.01 1011.37 1011.71 1012.05 1012.40 1012.76 1013.15 1013.54 1013.93 1014.31 1014.66 1014.96 1015.21 1015.41 1015.56 1015.69 1015.81 1015.93 1016.07 1016.23 1016.40 1016.60 1016.81 1017.04 1017.27 1017.50 1017.73 1017.95 1018.14
1005.64 1005.97 1006.32 1006.69 1007.07 1007.47 1007.88 1008.29 1008.70 1009.09 1009.46 1009.80 1010.12 1010.41 1010.70 1010.99 1011.30 1011.64 1012.02 1012.43 1012.87 1013.32 1013.77 1014.19 1014.57 1014.89 1015.17 1015.39 1015.57 1015.72 1015.85 1015.96 1016.08 1016.20 1016.32 1016.47 1016.63 1016.82 1017.03 1017.26 1017.51 1017.76 1017.99
1005.95 1006.19 1006.45 1006.76 1007.12 1007.52 1007.96 1008.40 1008.82 1009.21 1009.53 1009.80 1010.02 1010.21 1010.40 1010.62 1010.89 1011.22 1011.62 1012.08 1012.57 1013.07 1013.56 1014.01 1014.42 1014.76 1015.06 1015.31 1015.52 1015.69 1015.84 1015.96 1016.07 1016.16 1016.25 1016.34 1016.45 1016.59 1016.77 1016.99 1017.24 1017.51 1017.77
1006.17 1006.33 1006.52 1006.79 1007.14 1007.56 1008.03 1008.51 1008.95 1009.33 1009.62 1009.82 1009.95 1010.04 1010.14 1010.28 1010.50 1010.81 1011.22 1011.70 1012.23 1012.76 1013.28 1013.76 1014.18 1014.55 1014.87 1015.15 1015.39 1015.60 1015.78 1015.93 1016.05 1016.13 1016.19 1016.24 1016.30 1016.39 1016.53 1016.71 1016.95 1017.22 1017.50
1006.22 1006.33 1006.49 1006.75 1007.10 1007.55 1008.06 1008.58 1009.05 1009.44 1009.70 1009.84 1009.89 1009.89 1009.90 1009.97 1010.13 1010.41 1010.81 1011.30 1011.84 1012.39 1012.92 1013.41 1013.85 1014.24 1014.58 1014.89 1015.17 1015.44 1015.67 1015.86 1016.00 1016.10 1016.15 1016.17 1016.18 1016.22 1016.30 1016.44 1016.64 1016.90 1017.19
1006.07 1006.17 1006.33 1006.59 1006.97 1007.46 1008.01 1008.57 1009.07 1009.46 1009.70 1009.80 1009.80 1009.73 1009.66 1009.67 1009.78 1010.02 1010.39 1010.86 1011.39 1011.94 1012.47 1012.96 1013.41 1013.81 1014.17 1014.52 1014.86 1015.18 1015.47 1015.72 1015.90 1016.02 1016.08 1016.09 1016.07 1016.06 1016.08 1016.17 1016.32 1016.55 1016.82
1005.73 1005.85 1006.03 1006.31 1006.72 1007.24 1007.82 1008.41 1008.94 1009.34 1009.58 1009.66 1009.62 1009.51 1009.40 1009.35 1009.42 1009.62 1009.95 1010.39 1010.89 1011.42 1011.93 1012.41 1012.85 1013.26 1013.65 1014.04 1014.43 1014.80 1015.16 1015.47 1015.71 1015.87 1015.94 1015.95 1015.91 1015.85 1015.83 1015.85 1015.95 1016.12 1016.37
1005.26 1005.41 1005.61 1005.91 1006.33 1006.87 1007.47 1008.07 1008.61 1009.02 1009.27 1009.35 1009.30 1009.18 1009.06 1008.99 1009.02 1009.19 1009.49 1009.88 1010.35 1010.83 1011.31 1011.77 1012.20 1012.61 1013.02 1013.44 1013.87 1014.30 1014.72 1015.08 1015.38 1015.58 1015.69 1015.70 1015.65 1015.57 1015.49 1015.46 1015.50 1015.61 1015.80
1004.74 1004.91 1005.12 1005.43 1005.84 1006.36 1006.94 1007.54 1008.07 1008.49 1008.75 1008.85 1008.83 1008.73 1008.62 1008.56 1008.58 1008.73 1008.99 1009.35 1009.77 1010.20 1010.64 1011.07 1011.47 1011.88 1012.29 1012.73 1013.19 1013.66 1014.12 1014.54 1014.89 1015.13 1015.27 1015.31 1015.26 1015.17 1015.06 1014.98 1014.96 1015.01 1015.14
Thickness
5793 5795 5794 5793 5791 5790 5788 5787 5786 5784 5783 5782 5781 5780 5779 5778 5778 5777 5776 5775 5774 5773 5772 5772 5772 5771 5771 5769 5768 5767 5766 5765 5764 5762 5762 5760 5758 5757 5755 5755 5755 5753 5750
5798 5796 5794 5792 5790 5789 5787 5786 5784 5783 5781 5780 5779 5778 5777 5776 5775 5775 5774 5773 5772 5771 5770 5770 5769 5769 5768 5767 5766 5765 5764 5763 5761 5760 5760 5758 5757 5755 5754 5753 5752 5750 5749
5799 5796 5794 5792 5790 5788 5786 5784 5782 5781 5780 5778 5777 5776 5775 5773 5772 5772 5772 5771 5770 5769 5768 5767 5766 5766 5766 5765 5764 5763 5762 5761 5759 5758 5757 5756 5754 5754 5753 5751 5749 5748 5747
5799 5796 5794 5792 5789 5786 5784 5782 5781 5779 5778 5776 5775 5774 5773 5771 5770 5770 5769 5768 5768 5767 5766 5765 5764 5763 5763 5762 5762 5760 5760 5759 5757 5756 5755 5754 5753 5752 5751 5749 5747 5746 5745
5798 5796 5793 5790 5788 5785 5783 5781 5779 5777 5775 5774 5773 5772 5771 5770 5768 5768 5767 5766 5765 5764 5764 5763 5762 5761 5760 5760 5759 5758 5757 5756 5755 5754 5753 5753 5752 5750 5749 5748 5745 5744 5742
5797 5795 5792 5789 5786 5784 5781 5779 5777 5775 5773 5772 5771 5770 5768 5767 5766 5765 5765 5764 5763 5762 5761 5760 5759 5759 5758 5758 5757 5756 5755 5754 5752 5752 5751 5750 5750 5749 5748 5746 5745 5742 5740
5796 5794 5791 5788 5785 5782 5780 5777 5775 5773 5771 5770 5768 5767 5766 5765 5764 5763 5762 5761 5760 5759 5759 5757 5757 5756 5756 5756 5755 5754 5753 5752 5750 5749 5749 5748 5748 5747 5746 5744 5743 5740 5739
5797 5793 5789 5786 5783 5780 5778 5776 5774 5771 5769 5768 5766 5765 5763 5762 5761 5760 5759 5758 5758 5757 5756 5755 5755 5754 5754 5753 5753 5752 5751 5750 5749 5747 5746 5745 5745 5744 5743 5741 5740 5738 5736
5796 5791 5788 5784 5781 5778 5776 5774 5772 5769 5767 5765 5764 5762 5761 5760 5758 5758 5757 5756 5755 5754 5753 5753 5752 5752 5751 5751 5751 5750 5749 5748 5746 5745 5743 5743 5742 5741 5740 5739 5738 5736 5734
5792 5789 5786 5783 5780 5777 5774 5772 5770 5767 5765 5763 5762 5760 5759 5757 5756 5755 5754 5753 5752 5752 5751 5751 5750 5749 5749 5748 5748 5748 5747 5746 5744 5743 5742 5741 5740 5739 5738 5737 5736 5734 5733
5787 5785 5784 5781 5778 5776 5773 5770 5767 5765 5763 5761 5759 5758 5756 5755 5753 5752 5752 5751 5750 5750 5749 5749 5748 5748 5747 5746 5746 5745 5744 5743 5742 5741 5740 5740 5739 5737 5736 5735 5734 5733 5731
5782 5782 5781 5779 5776 5774 5771 5769 5765 5763 5761 5759 5757 5755 5754 5752 5751 5750 5749 5748 5748 5748 5747 5747 5746 5746 5745 5744 5743 5742 5742 5741 5740 5739 5739 5738 5737 5735 5734 5733 5732 5731 5730
5783 5781 5779 5777 5775 5772 5769 5766 5763 5761 5759 5757 5755 5753 5752 5750 5748 5747 5746 5745 5745 5745 5745 5744 5744 5743 5743 5742 5741 5740 5740 5739 5738 5737 5737 5736 5735 5734 5733 5731 5730 5729 5728
5781 5779 5777 5775 5772 5770 5768 5764 5761 5758 5756 5755 5754 5752 5750 5747 5745 5744 5743 5743 5742 5742 5742 5741 5741 5740 5740 5740 5739 5738 5737 5736 5736 5735 5734 5734 5733 5733 5731 5729 5727 5727 5726
5780 5777 5776 5773 5770 5768 5765 5762 5759 5757 5754 5753 5752 5751 5749 5746 5744 5742 5741 5740 5740 5739 5739 5738 5738 5737 5737 5737 5736 5735 5735 5734 5733 5733 5733 5732 5731 5731 5730 5728 5726 5725 5724
5779 5776 5774 5771 5768 5765 5762 5760 5757 5756 5753 5751 5750 5749 5748 5746 5743 5741 5739 5738 5737 5737 5736 5736 5735 5734 5734 5734 5734 5733 5732 5731 5731 5731 5730 5730 5729 5728 5728 5726 5725 5723 5722
5779 5776 5773 5770 5767 5763 5760 5758 5755 5754 5751 5749 5748 5747 5746 5744 5742 5740 5737 5736 5735 5735 5734 5733 5732 5731 5730 5730 5730 5730 5730 5729 5729 5728 5728 5727 5727 5726 5725 5724 5723 5722 5720
5778 5774 5771 5769 5764 5760 5758 5756 5753 5752 5749 5747 5745 5744 5743 5741 5739 5737 5735 5734 5733 5732 5731 5730 5728 5726 5725 5725 5725 5726 5726 5726 5726 5725 5724 5724 5724 5723 5722 5721 5721 5720 5719
5778 5774 5769 5766 5762 5758 5755 5753 5751 5749 5747 5745 5743 5741 5740 5738 5737 5736 5733 5732 5731 5730 5728 5727 5724 5723 5721 5721 5721 5722 5722 5722 5722 5722 5721 5721 5721 5720 5720 5719 5718 5717 5717
5776 5772 5767 5763 5759 5756 5752 5749 5746 5744 5743 5742 5740 5738 5737 5736 5735 5734 5731 5730 5729 5726 5724 5723 5721 5720 5718 5718 5718 5717 5717 5718 5719 5718 5718 5718 5717 5717 5716 5716 5715 5715 5714
5771 5768 5764 5760 5756 5753 5748 5744 5740 5738 5738 5737 5736 5735 5734 5733 5732 5731 5729 5727 5726 5723 5721 5720 5718 5716 5714 5714 5711 5709 5710 5713 5713 5714 5715 5714 5714 5714 5713 5713 5712 5711 5710
5767 5765 5761 5757 5753 5750 5747 5744 5740 5737 5735 5734 5733 5732 5731 5730 5728 5728 5726 5724 5722 5720 5717 5716 5714 5711 5710 5710 5705 5700 5697 5700 5705 5709 5709 5709 5710 5710 5710 5709 5709 5708 5707
5762 5761 5759 5755 5752 5748 5745 5741 5737 5732 5729 5727 5727 5726 5726 5725 5725 5724 5723 5721 5719 5717 5714 5713 5711 5708 5704 5704 5704 5699 5691 5689 5693 5699 5702 5704 5704 5705 5705 5705 5705 5704 5704
5760 5759 5755 5752 5749 5746 5743 5738 5732 5727 5723 5723 5722 5721 5721 5721 5721 5720 5719 5717 5715 5713 5711 5710 5708 5705 5702 5699 5699 5699 5696 5694 5688 5687 5692 5696 5699 5699 5700 5701 5700 5700 5700
5759 5755 5752 5748 5745 5743 5740 5735 5730 5725 5722 5721 5719 5717 5717 5717 5716 5715 5714 5712 5711 5709 5707 5706 5704 5702 5700 5697 5694 5693 5692 5690 5688 5684 5682 5686 5690 5693 5694 5694 5695 5695 5694
5754 5751 5748 5743 5740 5738 5736 5732 5728 5723 5720 5716 5714 5712 5711 5711 5710 5710 5709 5708 5706 5704 5703 5701 5700 5698 5696 5694 5692 5690 5688 5685 5684 5682 5679 5679 5681 5684 5687 5689 5689 5689 5689